Weather History for KEVM - June, 2014

Change the Weather History Date:

Tuesday, June 17, 2014

  Actual Average Record
Temperature  
Mean Temperature 66 °F -  
Max Temperature 80 °F 70 °F 85 °F (1989)
Min Temperature 51 °F 48 °F 33 °F (1999)
Growing Degree Days 16 (Base 50)    
Moisture  
Dew Point 53 °F    
Average Humidity 60    
Maximum Humidity 100    
Minimum Humidity 39    
Precipitation  
Precipitation 0.00 in - - ()
Sea Level Pressure  
Sea Level Pressure 29.86 in    
Wind  
Wind Speed 4 mph (NNE)    
Max Wind Speed 10 mph    
Max Gust Speed 16 mph    
Visibility 10 miles    
Events      
Averages and records for this station are not official NWS values.
T = Trace of Precipitation, MM = Missing Value Source: NWS Daily Summary

Daily Weather History Graph

Daily Weather History Graph

Search for Another Location

Airport or City:

Trip Planner

Search our weather history database for the weather conditions in past years. The results will help you decide how hot, cold, wet, or windy it might be!

Date:

Astronomy

Jun. 17, 2014 Rise Set
Actual Time 5:12 AM CDT 9:09 PM CDT
Civil Twilight 4:32 AM CDT 9:49 PM CDT
Nautical Twilight 3:36 AM CDT 10:45 PM CDT
Astronomical Twilight 2:08 AM CDT 12:13 AM CDT
Moon No Moon Rise 10:47 AM CDT (6/17)
Length of Visible Light 17h 17m
Length of Day
15h 57m
Waning Gibbous, 73% of the Moon is Illuminated
Jun 17
Waning Gibbous
Jun 19
Last Quarter
Jun 27
New
Jul 5
First Quarter
Jul 12
Full

Hourly Weather History & Observations

Time (CDT) Temp. Heat Index Dew Point Humidity Pressure Visibility Wind Dir Wind Speed Gust Speed Precip Events Conditions
12:13 AM 62.6 °F - 53.6 °F 72% 29.78 in 10.0 mi NNE 5.8 mph - N/A   Overcast
12:33 AM 64.4 °F - 53.6 °F 68% 29.77 in 10.0 mi NE 3.5 mph - N/A   Overcast
12:53 AM 62.6 °F - 53.6 °F 72% 29.77 in 10.0 mi NNE 4.6 mph - N/A   Overcast
1:13 AM 62.6 °F - 53.6 °F 72% 29.77 in 10.0 mi NE 3.5 mph - N/A   Overcast
1:33 AM 62.6 °F - 53.6 °F 72% 29.77 in 10.0 mi NE 4.6 mph - N/A   Mostly Cloudy
1:53 AM 62.6 °F - 53.6 °F 72% 29.77 in 10.0 mi NNE 4.6 mph - N/A   Scattered Clouds
2:13 AM 62.6 °F - 53.6 °F 72% 29.77 in 10.0 mi NNE 3.5 mph - N/A   Clear
2:33 AM 60.8 °F - 51.8 °F 72% 29.78 in 10.0 mi Calm Calm - N/A   Clear
2:53 AM 59.0 °F - 51.8 °F 77% 29.79 in 10.0 mi Calm Calm - N/A   Clear
3:13 AM 59.0 °F - 51.8 °F 77% 29.79 in 10.0 mi Calm Calm - N/A   Clear
3:33 AM 57.2 °F - 53.6 °F 88% 29.79 in 10.0 mi Calm Calm - N/A   Clear
3:53 AM 57.2 °F - 51.8 °F 82% 29.79 in 10.0 mi Calm Calm - N/A   Clear
4:13 AM 53.6 °F - 51.8 °F 94% 29.79 in 10.0 mi NNE 3.5 mph - N/A   Clear
4:33 AM 57.2 °F - 51.8 °F 82% 29.79 in 10.0 mi Calm Calm - N/A   Clear
4:53 AM 53.6 °F - 50.0 °F 88% 29.79 in 10.0 mi Calm Calm - N/A   Clear
5:13 AM 57.2 °F - 53.6 °F 88% 29.79 in 10.0 mi Calm Calm - N/A   Clear
5:33 AM 51.8 °F - 50.0 °F 94% 29.80 in 10.0 mi Calm Calm - N/A   Clear
5:53 AM 51.8 °F - 50.0 °F 94% 29.81 in 7.0 mi Calm Calm - N/A   Clear
6:13 AM 51.8 °F - 51.8 °F 100% 29.80 in 10.0 mi Calm Calm - N/A   Clear
6:53 AM 57.2 °F - 53.6 °F 88% 29.81 in 10.0 mi Calm Calm - N/A   Clear
7:13 AM 62.6 °F - 53.6 °F 72% 29.81 in 10.0 mi Calm Calm - N/A   Clear
7:53 AM 64.4 °F - 55.4 °F 73% 29.82 in 10.0 mi NNE 3.5 mph - N/A   Clear
8:13 AM 64.4 °F - 55.4 °F 73% 29.82 in 10.0 mi NNE 3.5 mph - N/A   Clear
8:33 AM 68.0 °F - 55.4 °F 64% 29.83 in 10.0 mi NE 5.8 mph - N/A   Clear
8:53 AM 69.8 °F - 55.4 °F 60% 29.83 in 10.0 mi NNE 4.6 mph - N/A   Clear
9:13 AM 71.6 °F - 57.2 °F 60% 29.83 in 10.0 mi NNE 5.8 mph - N/A   Clear
9:33 AM 71.6 °F - 57.2 °F 60% 29.83 in 10.0 mi NNE 5.8 mph - N/A   Clear
9:53 AM 71.6 °F - 55.4 °F 57% 29.84 in 10.0 mi NNE 3.5 mph - N/A   Clear
10:13 AM 71.6 °F - 55.4 °F 57% 29.85 in 10.0 mi Calm Calm - N/A   Clear
10:33 AM 71.6 °F - 55.4 °F 57% 29.85 in 10.0 mi ENE 3.5 mph - N/A   Clear
10:53 AM 71.6 °F - 53.6 °F 53% 29.86 in 10.0 mi Calm Calm - N/A   Clear
11:13 AM 73.4 °F - 53.6 °F 50% 29.86 in 10.0 mi Calm Calm - N/A   Clear
11:33 AM 77.0 °F - 55.4 °F 47% 29.86 in 10.0 mi NNE 3.5 mph - N/A   Clear
11:53 AM 77.0 °F - 55.4 °F 47% 29.86 in 10.0 mi North 4.6 mph - N/A   Clear
12:13 PM 77.0 °F - 55.4 °F 47% 29.86 in 10.0 mi NNE 5.8 mph - N/A   Clear
12:33 PM 77.0 °F - 53.6 °F 44% 29.86 in 10.0 mi NE 4.6 mph - N/A   Clear
12:52 PM 77.0 °F - 55.4 °F 47% 29.87 in 10.0 mi ENE 5.8 mph - N/A   Clear
1:13 PM 77.0 °F - 55.4 °F 47% 29.87 in 10.0 mi WNW 3.5 mph - N/A   Clear
1:33 PM 77.0 °F - 53.6 °F 44% 29.88 in 10.0 mi NNW 3.5 mph - N/A   Clear
1:53 PM 77.0 °F - 53.6 °F 44% 29.88 in 10.0 mi North 3.5 mph - N/A   Clear
2:13 PM 77.0 °F - 53.6 °F 44% 29.88 in 10.0 mi WNW 4.6 mph - N/A   Clear
2:33 PM 78.8 °F - 53.6 °F 42% 29.87 in 10.0 mi West 10.4 mph - N/A   Clear
2:53 PM 78.8 °F - 55.4 °F 44% 29.87 in 10.0 mi NW 8.1 mph - N/A   Clear
3:13 PM 80.6 °F 80.3 °F 53.6 °F 39% 29.88 in 10.0 mi NW 6.9 mph - N/A   Clear
3:33 PM 80.6 °F 80.3 °F 53.6 °F 39% 29.87 in 10.0 mi NW 10.4 mph - N/A   Clear
3:53 PM 80.6 °F 80.3 °F 53.6 °F 39% 29.87 in 10.0 mi ENE 4.6 mph - N/A   Clear
4:13 PM 80.6 °F 80.5 °F 55.4 °F 42% 29.87 in 10.0 mi NE 9.2 mph - N/A   Clear
4:33 PM 80.6 °F 80.5 °F 55.4 °F 42% 29.87 in 10.0 mi NNE 9.2 mph - N/A   Clear
4:53 PM 80.6 °F 80.3 °F 53.6 °F 39% 29.88 in 10.0 mi North 4.6 mph - N/A   Clear
5:13 PM 80.6 °F 80.3 °F 53.6 °F 39% 29.88 in 10.0 mi NNE 5.8 mph - N/A   Clear
5:34 PM 78.8 °F - 55.4 °F 44% 29.88 in 10.0 mi NNE 9.2 mph 16.1 mph N/A   Clear
5:53 PM 77.0 °F - 53.6 °F 44% 29.89 in 10.0 mi NNE 8.1 mph - N/A   Clear
6:13 PM 77.0 °F - 53.6 °F 44% 29.89 in 10.0 mi NNE 8.1 mph - N/A   Clear
6:33 PM 77.0 °F - 55.4 °F 47% 29.90 in 10.0 mi NNE 8.1 mph - N/A   Clear
6:53 PM 77.0 °F - 55.4 °F 47% 29.90 in 10.0 mi NNE 8.1 mph - N/A   Clear
7:13 PM 77.0 °F - 55.4 °F 47% 29.91 in 10.0 mi NNE 8.1 mph - N/A   Clear
7:34 PM 75.2 °F - 53.6 °F 47% 29.91 in 10.0 mi NNE 6.9 mph - N/A   Clear
7:53 PM 73.4 °F - 53.6 °F 50% 29.91 in 10.0 mi NNE 5.8 mph - N/A   Clear
8:13 PM 71.6 °F - 51.8 °F 50% 29.92 in 10.0 mi NNE 5.8 mph - N/A   Clear
8:33 PM 71.6 °F - 51.8 °F 50% 29.92 in 10.0 mi NNE 4.6 mph - N/A   Clear
8:53 PM 69.8 °F - 51.8 °F 53% 29.93 in 10.0 mi NNE 4.6 mph - N/A   Clear
9:13 PM 69.8 °F - 51.8 °F 53% 29.94 in 10.0 mi North 4.6 mph - N/A   Clear
9:33 PM 68.0 °F - 50.0 °F 52% 29.95 in 10.0 mi NNE 3.5 mph - N/A   Clear
9:53 PM 66.2 °F - 50.0 °F 56% 29.96 in 10.0 mi NNE 4.6 mph - N/A   Clear
10:13 PM 64.4 °F - 51.8 °F 64% 29.98 in 10.0 mi NNE 3.5 mph - N/A   Clear
10:33 PM 64.4 °F - 51.8 °F 64% 29.98 in 10.0 mi NE 5.8 mph - N/A   Clear
10:53 PM 64.4 °F - 51.8 °F 64% 29.98 in 10.0 mi NE 5.8 mph - N/A   Clear
11:13 PM 64.4 °F - 51.8 °F 64% 29.98 in 10.0 mi NE 4.6 mph - N/A   Clear
11:33 PM 62.6 °F - 51.8 °F 68% 29.98 in 10.0 mi NE 5.8 mph - N/A   Clear
11:53 PM 62.6 °F - 51.8 °F 68% 29.98 in 10.0 mi NE 9.2 mph - N/A   Clear